Regional Weather Roundup
Issued by NWS

Home | Current Version | Previous Version | Text Only | Print | Product List | Glossary On
Versions: 1 2 3 4 5 6 7 8 9 10 11 12 13 14 15 16 17 18 19 20 21 22 23 24 25 26 27 28 29 30 31 32 33 34 35 36 37 38 39 40 41 42 43 44 45 46 47 48 49 50
000
ASUS43 KLSX 171659
RWRMO

WEATHER SUMMARY FOR MISSOURI
NATIONAL WEATHER SERVICE SPRINGFIELD MO
1200 PM CDT THU APR 17 2014

NOTE: "FAIR" INDICATES FEW OR NO CLOUDS BELOW 12,000 FEET WITH NO
       SIGNIFICANT WEATHER AND/OR OBSTRUCTIONS TO VISIBILITY.
       CURRENT SKY AND/OR WEATHER CONDITIONS ARE NOT AVAILABLE FOR
       CHILLICOTHE AND FARMINGTON.

MOZ001>031-035>038-043-044-053-054-171800-
...NORTHERN AND WESTERN MISSOURI...

CITY           SKY/WX    TMP DP  RH WIND       PRES   REMARKS
KANSAS CTY INT CLOUDY    42  30  62 VRB7      30.32R
KANSAS C DTWN  CLOUDY    43  31  62 N6        30.33R
LEE`S SUMMIT   CLOUDY    42  31  64 N6        30.33R
ST JOSEPH      PTSUNNY   43  29  57 N8        30.33R
CHILLICOTHE      N/A     41  31  67 N6        30.33R
KIRKSVILLE     CLOUDY    44  32  62 NW7       30.29S

$$
MOZ066>068-077>081-088>096-101>105-171800-
...SOUTHWEST MISSOURI...

CITY           SKY/WX    TMP DP  RH WIND       PRES   REMARKS
SPRINGFIELD    MOSUNNY   57  35  43 SW5       30.24F
JOPLIN         PTSUNNY   55  40  56 N7        30.26S

$$
MOZ032>034-039>042-045>050-055>058-069>072-171800-
...CENTRAL MISSOURI...

CITY           SKY/WX    TMP DP  RH WIND       PRES   REMARKS
COLUMBIA       CLOUDY    51  37  58 CALM      30.27S
JEFFERSON CITY CLOUDY    51  37  58 W6        30.27S
ROLLA          CLOUDY    54  35  48 SW7       30.25S
SEDALIA        CLOUDY    46  36  68 N6        30.30R
OSAGE BEACH    CLOUDY    54  36  50 NE3       30.28S

$$
MOZ051-052-059>065-171800-
...EAST CENTRAL MISSOURI...

CITY           SKY/WX    TMP DP  RH WIND       PRES   REMARKS
ST LOUIS INTL  CLOUDY    62  35  36 VRB6      30.26S
SPIRIT OF STL  PTSUNNY   61  37  41 W10       30.25F
ST CHARLES     PTSUNNY   57  35  43 SW7       30.26S

$$
MOZ072>076-082>087-097>100-106>115-171800-
...SOUTH CENTRAL AND SOUTHEAST MISSOURI...

CITY           SKY/WX    TMP DP  RH WIND       PRES   REMARKS
CAPE GIRARDEAU SUNNY     62  41  46 SW9       30.30F
FARMINGTON     PTSUNNY   63  34  34 S8        30.28S
POPLAR BLUFF   SUNNY     62  36  37 VRB5      30.27F
WEST PLAINS    SUNNY     61  33  35 VRB5      30.25F

$$



USA.gov is the U.S. government's official web portal to all federal, state and local government web resources and services.